This is the latest recevied weather packets stored in our database for station/object WX1NWA. If no packets are shown the sender has not sent any weather packets the latest 1 day(s).
| Time | Temp. | Humidity | Pressure | Rain* | Wind** | Luminosity | Snow |
|---|---|---|---|---|---|---|---|
| 1778000745 | 16.11° C | 99% | 1009.2 hPa | 0 mm | 0.45 m/s, 271° | 79 W/m² | - |
| 1778000441 | 16.11° C | 99% | 1009.5 hPa | 0 mm | 1.79 m/s, 165° | 101 W/m² | - |
| 1778000137 | 16.11° C | 99% | 1009.2 hPa | 0 mm | 0.45 m/s, 1° | 68 W/m² | - |
| 1777999832 | 16.11° C | 99% | 1009.3 hPa | 0 mm | 0.89 m/s, 282° | 70 W/m² | - |
| 1777999528 | 16.11° C | 99% | 1009.3 hPa | 0 mm | 2.24 m/s, 164° | 89 W/m² | - |
| 1777999226 | 16.11° C | 99% | 1009.1 hPa | 0 mm | 1.34 m/s, 181° | 75 W/m² | - |
| 1777998925 | 16.11° C | 99% | 1009 hPa | 0 mm | 2.24 m/s, 124° | 93 W/m² | - |
| 1777998621 | 16.11° C | 99% | 1009 hPa | 0 mm | 1.34 m/s, 189° | 121 W/m² | - |
| 1777998325 | 15.56° C | 99% | 1009.1 hPa | 0 mm | 3.13 m/s, 187° | 184 W/m² | - |
| 1777998012 | 15.56° C | 99% | 1008.8 hPa | 0 mm | 2.68 m/s, 141° | 112 W/m² | - |
| 1777997708 | 16.11° C | 99% | 1009.1 hPa | 0 mm | 0.45 m/s, 72° | 144 W/m² | - |
| 1777997406 | 15.56° C | 99% | 1009 hPa | 0 mm | 2.24 m/s, 157° | 149 W/m² | - |
| 1777997104 | 16.11° C | 99% | 1009 hPa | 0 mm | 1.34 m/s, 45° | 199 W/m² | - |
| 1777996800 | 15.56° C | 99% | 1009.2 hPa | 0 mm | 1.79 m/s, 206° | 184 W/m² | - |
| 1777996496 | 15.56° C | 99% | 1008.7 hPa | 0 mm | 1.34 m/s, 190° | 159 W/m² | - |
| 1777996193 | 15.56° C | 99% | 1009.1 hPa | 0 mm | 1.34 m/s, 221° | 127 W/m² | - |
| 1777995889 | 15.56° C | 99% | 1009.1 hPa | 0 mm | 1.79 m/s, 279° | 128 W/m² | - |
| 1777995585 | 15.56° C | 99% | 1009 hPa | 0 mm | 2.24 m/s, 136° | 222 W/m² | - |
| 1777995283 | 15.56° C | 99% | 1008.9 hPa | 0 mm | 2.24 m/s, 192° | 220 W/m² | - |
| 1777994980 | 15.56° C | 99% | 1009.3 hPa | 0 mm | 1.34 m/s, 270° | 246 W/m² | - |
| 1777994677 | 15.56° C | 99% | 1009.1 hPa | 0 mm | 1.79 m/s, 254° | 215 W/m² | - |
| 1777994378 | 15.56° C | 99% | 1009.3 hPa | 0 mm | 1.34 m/s, 205° | 182 W/m² | - |
| 1777994073 | 15.56° C | 99% | 1009.3 hPa | 0 mm | 0.89 m/s, 277° | 176 W/m² | - |
| 1777993771 | 15.56° C | 99% | 1009.5 hPa | 0 mm | 1.79 m/s, 171° | 172 W/m² | - |
| 1777993468 | 15.56° C | 99% | 1009.7 hPa | 0 mm | 0.89 m/s, 233° | 158 W/m² | - |
* Rain latest hour (hover to see other rain measurements)
** Current wind speed in m/s (hover to see current wind gust speed)